Simultaneous Nadir Overpasses (SNOs) Predictions

Prediction of SNOs between GOES-16 and METOP-C Satellite Orbit:

Table of predicted SNOs for the next 14.0 days since TLE Epoch: 4/10/2022
Index Date Time (GOES-16) GOES-16 Lat,Lon METOP-C Lat,Lon Distance(km) Time Diff (sec)
1 04/11/2022 14:32:43 0.06, -75.22 0.16, -75.64 48.00 80
2 04/14/2022 02:33:42 -0.06, -75.22 -0.06, -75.24 2.35 80
3 04/16/2022 14:31:55 0.06, -75.26 -0.06, -74.82 50.86 80
4 04/18/2022 02:50:55 -0.06, -75.26 -0.96, -79.41 472.48 80
5 04/19/2022 02:27:35 -0.06, -75.27 0.16, -74.42 97.65 80
6 04/20/2022 14:46:26 0.05, -75.30 0.89, -78.98 419.34 80
7 04/21/2022 14:28:27 0.05, -75.31 -0.24, -73.98 150.89 80
8 04/23/2022 02:47:26 -0.05, -75.31 -0.79, -78.58 372.19 80
9 04/24/2022 02:24:07 -0.04, -75.33 0.34, -73.58 198.34 80
